Location: Alta
(39.2070°N, 120.8111°W)
Time: 15:24:05
(UTC+00:00)

AO-85 - Pass Details

Date: 05 April 2023
Orbit: 516 x 753 km, 64.8° (Epoch: 04 January)

Event Time Altitude Azimuth Distance (km) Brightness Sun altitude
Rises 12:53:27 0° 172° (S) 2,879 ? -9.9°
Reaches altitude 10° 12:56:24 10° 152° (SSE) 1,929 ? -9.4°
Maximum altitude 12:59:13 17° 112° (ESE) 1,486 ? -8.9°
Drops below altitude 10° 13:01:56 10° 71° (ENE) 1,853 ? -8.4°
Sets 13:04:41 0° 50° (NE) 2,715 ? -7.8°
